Starlink 32491

operational
NORAD ID: 62043 Int'l Des: 2024-216 Owner: SPXS Country: US Constellation: starlink
LEOCIRCULAR

关于 Starlink 32491

正在加载描述...

实时位置

正在加载3D地球...

即将过境

高度历史

Altitude vs Time

uPlot chart will show altitude changes over time

两行轨道根数

1 62043U 24216M 25260.11813445 .00020621 00000-0 75759-3 0 9999
2 62043 43.0002 164.0449 0000795 338.7202 21.3616 15.27545286 47241
Epoch: Sep 17, 2025 • Age: 8 hours

当前状态

高度 486.3 km
速度 7.63 km/s
星下点 42.35°N, 102.24°E
发射日期 Nov 21, 2024
运行时间 0.8 years
类型 internet

技术详情

分类 Payload
质量 730.00 kg
干质量 700.00 kg
总质量 730.00 kg
长度 0.30 m
直径 4.10 m
跨度 29.00 m
形状 Box + pan
制造商 SPXS
平台类型 Starlink V2M
阶段状态 In Orbit
所有者/国家 SPXS/US

大型星座

Loading constellations...